Hourly Data Report for June 05, 2021

WINNIPEG THE FORKS
MANITOBA
Current Station Operator: ECCC - MSC

49°53'18.008" N
97°07'46.007" W
230.00 m
5023262
71579
XWN

Download Data

Hourly Data (June 2021)
Hourly Data Report for June 5, 2021
TIME
LST
Temp Definition
°C
Dew Point Definition
°C
Rel Hum Definition
%
Precip. Amount Definition
mm

Wind Dir Definition
10's deg

Wind Spd Definition
km/h
Visibility Definition
km
Stn Press Definition
kPa
Hmdx Definition


Wind Chill Definition


Weather Definition


00:00 20.1 12.2 60 0.0 2 4   97.54     LegendNANA
01:00 19.2 12.2 64 0.0 1 3   97.53     LegendNANA
02:00 19.2 12.4 65 0.0 34 6   97.57     LegendNANA
03:00 18.5 11.7 65 0.0 33 6   97.60     LegendNANA
04:00 17.6 11.7 68 0.0 34 7   97.60     LegendNANA
05:00 16.9 11.8 72 0.0 35 3   97.61     LegendNANA
06:00 18.5 12.6 68 0.0 36 2   97.62     LegendNANA
07:00 19.9 13.3 66 0.0 2 5   97.62     LegendNANA
08:00 22.2 13.8 59 0.0 6 3   97.60 25   LegendNANA
09:00 24.8 14.5 53 0.0 7 4   97.54 28   LegendNANA
10:00 27.5 11.5 37 0.0 7 7   97.46 30   LegendNANA
11:00 29.9 11.6 32 0.0 19 3   97.45 32   LegendNANA
12:00 31.2 9.0 25 0.0 22 3   97.37 32   LegendNANA
13:00 32.5 10.8 27 0.0 10 3   97.28 34   LegendNANA
14:00 32.9 9.1 23 0.0 21 6   97.24 34   LegendNANA
15:00 33.9 9.9 23 0.0 17 4   97.16 35   LegendNANA
16:00 34.6 8.9 21 0.0 21 7   97.05 35   LegendNANA
17:00 33.9 11.5 26 0.0 19 4   96.93 36   LegendNANA
18:00 33.1 13.9 31 0.0 9 4   96.79 36   LegendNANA
19:00 26.8 17.5 57 1.1 22 9   96.88 32   LegendNANA
20:00 26.8 15.5 50 0.0 26 3   96.82 31   LegendNANA
21:00 25.8 16.1 55 0.0 33 4   96.86 30   LegendNANA
22:00 23.9 14.7 56 0.0 6 2   96.82 28   LegendNANA
23:00 24.0 13.9 53 0.0 20 6   96.80 27   LegendNANA

Notes on Data Quality.

Legend

  • E = Estimated
  • M = Missing
  • NA = Not Available*
  • [empty] = Indicates an unobserved value
Date modified: